COSMOS 1975

Last updated on Thu Nov 21 2024 00:02:12 GMT+0000 (Coordinated Universal Time)

1 19573U 88093A 24325.49538920 .00012686 00000+0 61059-3 0 9995 2 19573 82.5248 230.1466 0016344 43.9181 316.3349 15.18538209947205
UTC large
Height (km)
Speed (km/s)
/
Latitude / Longitude
Inclination (degrees)
Orbital Period (minutes)
Azimuth
Elevation
Range (km)
Doppler Factor

Next 0 passes for location: London (51.5072 / 0.1276)

Sorry there are no passes over London.